HVDC transfer

From www.emi.ea.govt.nz provided by the Electricity Authority (New Zealand)
Run at: 20240510201403

Parameters
Date range,29 Mar 2024 - 29 Mar 2024
Time scale,Trading period
Show,Average flow (MW)

Period start,Period end,Trading period,Direction,Energy transfer (GWh),Peak flow (MW),Average flow (MW)
29/03/2024 00:00:00,29/03/2024 00:30:00,1,Southward at Benmore,-0.117,-235,-235
29/03/2024 00:30:00,29/03/2024 01:00:00,2,Southward at Benmore,-0.104,-209,-209
29/03/2024 01:00:00,29/03/2024 01:30:00,3,Southward at Benmore,-0.104,-209,-209
29/03/2024 01:30:00,29/03/2024 02:00:00,4,Southward at Benmore,-0.148,-296,-296
29/03/2024 02:00:00,29/03/2024 02:30:00,5,Southward at Benmore,-0.162,-325,-325
29/03/2024 02:30:00,29/03/2024 03:00:00,6,Southward at Benmore,-0.158,-316,-316
29/03/2024 03:00:00,29/03/2024 03:30:00,7,Southward at Benmore,-0.110,-221,-221
29/03/2024 03:30:00,29/03/2024 04:00:00,8,Southward at Benmore,-0.113,-226,-226
29/03/2024 04:00:00,29/03/2024 04:30:00,9,Southward at Benmore,-0.102,-204,-204
29/03/2024 04:30:00,29/03/2024 05:00:00,10,Southward at Benmore,-0.080,-160,-160
29/03/2024 05:00:00,29/03/2024 05:30:00,11,Southward at Benmore,-0.047,-95,-95
29/03/2024 05:30:00,29/03/2024 06:00:00,12,Southward at Benmore,-0.049,-98,-98
29/03/2024 06:00:00,29/03/2024 06:30:00,13,Southward at Benmore,-0.052,-104,-104
29/03/2024 06:30:00,29/03/2024 07:00:00,14,Southward at Benmore,-0.067,-134,-134
29/03/2024 07:00:00,29/03/2024 07:30:00,15,Southward at Benmore,-0.065,-130,-130
29/03/2024 07:30:00,29/03/2024 08:00:00,16,Southward at Benmore,-0.020,-41,-41
29/03/2024 08:00:00,29/03/2024 08:30:00,17,Northward at Haywards,0.013,26,26
29/03/2024 08:30:00,29/03/2024 09:00:00,18,Northward at Haywards,0.037,73,73
29/03/2024 09:00:00,29/03/2024 09:30:00,19,Northward at Haywards,0.020,39,39
29/03/2024 09:30:00,29/03/2024 10:00:00,20,Northward at Haywards,0.010,20,20
29/03/2024 10:00:00,29/03/2024 10:30:00,21,Northward at Haywards,0.032,63,63
29/03/2024 10:30:00,29/03/2024 11:00:00,22,Northward at Haywards,0.030,60,60
29/03/2024 11:00:00,29/03/2024 11:30:00,23,Northward at Haywards,0.031,62,62
29/03/2024 11:30:00,29/03/2024 12:00:00,24,Northward at Haywards,0.038,76,76
29/03/2024 12:00:00,29/03/2024 12:30:00,25,Northward at Haywards,0.035,69,69
29/03/2024 12:30:00,29/03/2024 13:00:00,26,Northward at Haywards,0.026,52,52
29/03/2024 13:00:00,29/03/2024 13:30:00,27,Northward at Haywards,0.018,36,36
29/03/2024 13:30:00,29/03/2024 14:00:00,28,Northward at Haywards,0.018,36,36
29/03/2024 14:00:00,29/03/2024 14:30:00,29,Southward at Benmore,-0.006,-13,-13
29/03/2024 14:30:00,29/03/2024 15:00:00,30,Southward at Benmore,-0.015,-31,-31
29/03/2024 15:00:00,29/03/2024 15:30:00,31,Southward at Benmore,-0.013,-26,-26
29/03/2024 15:30:00,29/03/2024 16:00:00,32,Southward at Benmore,-0.012,-25,-25
29/03/2024 16:00:00,29/03/2024 16:30:00,33,Southward at Benmore,-0.003,-6,-6
29/03/2024 16:30:00,29/03/2024 17:00:00,34,Southward at Benmore,-0.006,-12,-12
29/03/2024 17:00:00,29/03/2024 17:30:00,35,Northward at Haywards,0.004,8,8
29/03/2024 17:30:00,29/03/2024 18:00:00,36,Southward at Benmore,0.000,-1,-1
29/03/2024 18:00:00,29/03/2024 18:30:00,37,Southward at Benmore,-0.004,-9,-9
29/03/2024 18:30:00,29/03/2024 19:00:00,38,Southward at Benmore,-0.009,-18,-18
29/03/2024 19:00:00,29/03/2024 19:30:00,39,Southward at Benmore,-0.007,-14,-14
29/03/2024 19:30:00,29/03/2024 20:00:00,40,Southward at Benmore,-0.020,-40,-40
29/03/2024 20:00:00,29/03/2024 20:30:00,41,Southward at Benmore,-0.016,-32,-32
29/03/2024 20:30:00,29/03/2024 21:00:00,42,Southward at Benmore,-0.023,-47,-47
29/03/2024 21:00:00,29/03/2024 21:30:00,43,Southward at Benmore,-0.021,-43,-43
29/03/2024 21:30:00,29/03/2024 22:00:00,44,Southward at Benmore,-0.020,-41,-41
29/03/2024 22:00:00,29/03/2024 22:30:00,45,Southward at Benmore,-0.065,-130,-130
29/03/2024 22:30:00,29/03/2024 23:00:00,46,Southward at Benmore,-0.089,-178,-178
29/03/2024 23:00:00,29/03/2024 23:30:00,47,Southward at Benmore,-0.094,-189,-189
29/03/2024 23:30:00,30/03/2024 00:00:00,48,Southward at Benmore,-0.156,-313,-313
